NR6G-12 Weather Reports


time (UTC)temp
C
wind
direction
speed
KPH
gust
KPH
rain 1hr
cm
rain 24hr
cm
rain mn
cm
humidity
%
barometer
mb
20260506175401 11 0 0.0 0.0 0.00 0.00 0.00 84 1019.6
20260506174804 11 0 0.0 0.0 0.00 0.00 0.00 85 1019.7
20260506174201 11 0 0.0 0.0 0.00 0.00 0.00 82 1019.6
20260506173601 11 0 0.0 0.0 0.00 0.00 0.00 84 1019.6
20260506173001 11 0 0.0 0.0 0.00 0.00 0.00 86 1019.6
20260506172401 10 0 0.0 0.0 0.00 0.00 0.00 83 1019.5
20260506171801 10 0 0.0 0.0 0.00 0.00 0.00 83 1019.6
20260506171201 10 0 0.0 0.0 0.00 0.00 0.00 85 1019.6
20260506170601 10 0 0.0 0.0 0.00 0.00 0.00 84 1019.6
20260506170001 10 0 0.0 0.0 0.00 0.00 0.00 83 1019.5
20260506165401 10 0 0.0 0.0 0.00 0.00 0.00 85 1019.6
20260506164801 10 0 0.0 0.0 0.00 0.00 0.00 84 1019.6
20260506164201 10 0 0.0 0.0 0.00 0.00 0.00 83 1019.6
20260506163601 10 0 0.0 0.0 0.00 0.00 0.00 84 1019.6
20260506163001 10 0 0.0 0.0 0.00 0.03 0.00 82 1019.7
20260506162401 10 0 0.0 0.0 0.00 0.03 0.00 86 1019.7
20260506161801 10 0 0.0 0.0 0.00 0.03 0.00 84 1019.8
20260506160903 10 0 0.0 0.0 0.00 0.03 0.00 87 1019.7
20260506160303 9 0 0.0 0.0 0.00 0.03 0.00 89 1019.8
20260506155703 9 0 0.0 0.0 0.00 0.03 0.00 87 1019.7
20260506155103 8 0 0.0 0.0 0.00 0.03 0.00 88 1019.7
20260506154503 8 0 0.0 1.6 0.00 0.03 0.00 89 1019.6
20260506153903 8 0 0.0 0.0 0.00 0.03 0.00 89 1019.5
20260506153303 8 0 0.0 0.0 0.00 0.03 0.00 90 1018.8
20260506152703 8 0 0.0 0.0 0.00 0.03 0.00 89 1019.0
20260506152103 8 0 0.0 0.0 0.00 0.03 0.00 92 1018.9
20260506151503 8 0 0.0 0.0 0.00 0.03 0.00 90 1018.7
20260506150903 7 0 0.0 0.0 0.00 0.03 0.00 90 1018.9
20260506150304 7 0 0.0 0.0 0.00 0.03 0.00 91 1018.9
20260506145703 7 0 0.0 0.0 0.00 0.03 0.00 92 1018.8
20260506145103 6 0 0.0 0.0 0.00 0.03 0.00 93 1018.7
20260506144503 6 0 0.0 0.0 0.00 0.03 0.00 92 1018.5
20260506143903 6 0 0.0 0.0 0.00 0.03 0.00 92 1018.6
20260506143303 6 0 0.0 0.0 0.00 0.03 0.00 92 1018.6
20260506142703 6 0 0.0 0.0 0.00 0.03 0.00 92 1018.6
20260506142103 6 0 0.0 0.0 0.00 0.03 0.00 92 1018.4
20260506141503 5 0 0.0 0.0 0.00 0.03 0.00 92 1018.3
20260506140903 5 0 0.0 0.0 0.00 0.03 0.00 92 1018.4
20260506140303 5 0 0.0 0.0 0.00 0.03 0.00 93 1018.3
20260506135703 5 0 0.0 0.0 0.00 0.03 0.00 93 1018.3
20260506135103 5 0 0.0 0.0 0.00 0.03 0.00 93 1018.3
20260506134503 5 0 0.0 0.0 0.00 0.03 0.00 94 1018.1
20260506133903 5 0 0.0 0.0 0.00 0.03 0.00 94 1018.0
20260506133303 5 0 0.0 0.0 0.00 0.03 0.00 94 1018.0
20260506132703 5 0 0.0 0.0 0.00 0.03 0.00 93 1017.9
20260506132103 5 0 0.0 0.0 0.00 0.05 0.00 93 1017.7
20260506131503 5 0 0.0 0.0 0.00 0.05 0.00 92 1017.8
20260506130903 5 0 0.0 0.0 0.00 0.05 0.00 93 1017.7
20260506130303 5 0 0.0 0.0 0.00 0.05 0.00 92 1017.7
20260506125103 5 0 0.0 0.0 0.00 0.05 0.00 92 1017.6
20260506124503 5 0 0.0 0.0 0.00 0.05 0.00 92 1017.5
20260506123903 5 0 0.0 0.0 0.00 0.05 0.00 92 1017.5
20260506123303 5 0 0.0 0.0 0.00 0.05 0.00 91 1017.5
20260506122703 5 0 0.0 0.0 0.00 0.08 0.00 91 1017.5
20260506122103 5 0 0.0 0.0 0.00 0.08 0.00 92 1017.3
20260506121503 5 0 0.0 0.0 0.00 0.08 0.00 92 1017.3
20260506120903 5 0 0.0 0.0 0.00 0.08 0.00 91 1017.4
20260506120303 5 0 0.0 0.0 0.00 0.08 0.00 91 1017.4
20260506115705 5 0 0.0 0.0 0.00 0.10 0.00 91 1017.4
20260506115103 5 0 0.0 0.0 0.00 0.10 0.00 91 1017.4
20260506114503 5 0 0.0 0.0 0.00 0.10 0.00 90 1017.4
20260506113903 5 0 0.0 0.0 0.00 0.10 0.00 90 1017.4
20260506113303 5 0 0.0 0.0 0.00 0.10 0.00 90 1017.4
20260506112103 5 0 0.0 0.0 0.00 0.10 0.00 90 1017.3
20260506111502 5 0 0.0 0.0 0.00 0.10 0.00 90 1017.2
20260506110903 5 0 0.0 0.0 0.00 0.10 0.00 90 1017.3
20260506110303 5 0 0.0 0.0 0.00 0.10 0.00 89 1017.2
20260506105103 5 0 0.0 0.0 0.00 0.10 0.00 90 1017.1
20260506104503 5 0 0.0 1.6 0.00 0.10 0.00 90 1017.0
20260506103903 5 0 0.0 0.0 0.00 0.10 0.00 90 1016.9
20260506103303 5 0 0.0 0.0 0.00 0.10 0.00 90 1017.0
20260506102703 5 0 0.0 0.0 0.00 0.10 0.00 90 1016.8
20260506102103 5 0 0.0 0.0 0.00 0.10 0.00 90 1016.8
20260506101503 5 0 0.0 0.0 0.00 0.10 0.00 90 1016.8
20260506100903 5 0 0.0 0.0 0.00 0.10 0.00 89 1016.8
20260506100303 5 0 0.0 0.0 0.00 0.10 0.00 89 1016.9
20260506095702 6 0 0.0 0.0 0.00 0.10 0.00 89 1016.8
20260506095103 5 0 0.0 0.0 0.00 0.10 0.00 89 1016.8
20260506094503 5 0 0.0 0.0 0.00 0.10 0.00 89 1016.8
20260506093903 6 0 0.0 1.6 0.00 0.10 0.00 89 1017.0
20260506093303 6 0 0.0 0.0 0.00 0.10 0.00 89 1017.1
20260506092703 6 0 0.0 0.0 0.00 0.10 0.00 88 1017.0
20260506092103 6 0 0.0 0.0 0.00 0.10 0.00 88 1017.0
20260506091503 6 0 0.0 0.0 0.00 0.10 0.00 88 1017.1
20260506090903 6 0 0.0 0.0 0.00 0.10 0.00 88 1017.0
20260506090303 6 0 0.0 0.0 0.00 0.10 0.00 88 1017.0
20260506085703 6 0 0.0 0.0 0.00 0.10 0.00 88 1017.1
20260506085103 6 0 0.0 0.0 0.00 0.10 0.00 88 1017.1
20260506084503 6 0 0.0 0.0 0.00 0.10 0.00 88 1017.2
20260506083903 6 0 0.0 0.0 0.00 0.10 0.00 87 1017.2
20260506083303 6 0 0.0 0.0 0.00 0.10 0.00 87 1017.2
20260506082702 6 0 0.0 0.0 0.00 0.10 0.00 87 1017.0
20260506082103 6 0 0.0 0.0 0.00 0.10 0.00 87 1017.1
20260506081502 6 0 0.0 0.0 0.00 0.10 0.00 88 1017.1
20260506080903 6 0 0.0 0.0 0.00 0.10 0.00 89 1017.0
20260506080303 5 0 0.0 0.0 0.00 0.10 0.00 90 1017.0
20260506073303 5 0 0.0 0.0 0.00 0.10 0.00 92 1016.8
20260506072702 5 0 0.0 0.0 0.00 0.10 0.00 92 1016.9
20260506072103 5 0 0.0 0.0 0.00 0.10 0.00 92 1016.8
20260506071503 5 0 0.0 0.0 0.00 0.10 0.00 93 1016.7
20260506070903 5 0 0.0 0.0 0.00 0.10 0.00 93 1016.7
20260506070303 5 0 0.0 0.0 0.00 0.10 0.10 93 1016.6
20260506062103 5 0 0.0 0.0 0.00 0.10 0.10 92 1016.3
20260506061503 5 0 0.0 1.6 0.00 0.10 0.10 92 1016.2
20260506060903 5 0 0.0 1.6 0.00 0.10 0.10 91 1016.1
20260506060303 5 0 0.0 1.6 0.00 0.10 0.10 92 1016.1
20260506050902 5 0 0.0 0.0 0.00 0.10 0.10 92 1015.6
20260506050302 5 0 0.0 0.0 0.00 0.10 0.10 92 1015.5
20260506045102 5 0 0.0 0.0 0.00 0.10 0.10 92 1015.4
20260506044503 5 0 0.0 0.0 0.00 0.10 0.10 92 1015.5
20260506043903 5 0 0.0 0.0 0.00 0.10 0.10 92 1015.4
20260506043302 5 0 0.0 0.0 0.00 0.10 0.10 92 1015.3
20260506042702 5 0 0.0 0.0 0.00 0.10 0.10 92 1015.4
20260506042102 5 0 0.0 0.0 0.00 0.10 0.10 92 1015.3
20260506041502 5 0 0.0 0.0 0.00 0.10 0.10 92 1015.2
20260506040903 5 0 0.0 0.0 0.00 0.10 0.10 92 1015.2
20260506040302 5 0 0.0 0.0 0.00 0.10 0.10 92 1015.0
20260506035703 5 0 0.0 0.0 0.00 0.10 0.10 91 1015.0
20260506034702 5 0 0.0 0.0 0.00 0.10 0.10 92 1015.0
20260506034102 5 0 0.0 0.0 0.00 0.10 0.10 92 1014.9
20260506033502 5 0 0.0 0.0 0.00 0.10 0.10 92 1014.8
20260506032902 5 0 0.0 0.0 0.00 0.10 0.10 92 1014.8
20260506032305 5 0 0.0 0.0 0.00 0.10 0.10 92 1014.8
20260506031702 5 0 0.0 0.0 0.00 0.10 0.10 92 1014.7
20260506031103 5 0 0.0 0.0 0.00 0.10 0.10 92 1014.5
20260506030504 5 0 0.0 0.0 0.00 0.10 0.10 91 1014.6
20260506025902 5 0 0.0 0.0 0.00 0.10 0.10 91 1014.4
20260506025305 5 0 0.0 0.0 0.00 0.10 0.10 90 1014.5
20260506024702 6 0 0.0 0.0 0.00 0.10 0.10 90 1014.5
20260506024102 6 0 0.0 0.0 0.00 0.10 0.10 91 1014.4
20260506022902 6 0 0.0 0.0 0.00 0.10 0.10 91 1014.4
20260506022305 6 0 0.0 0.0 0.00 0.10 0.10 93 1014.4
20260506021702 6 0 0.0 0.0 0.00 0.10 0.10 93 1014.4
20260506021102 6 0 0.0 0.0 0.00 0.10 0.10 93 1014.4
20260506020503 6 0 0.0 1.6 0.00 0.10 0.10 92 1014.3
20260506015902 6 0 0.0 1.6 0.00 0.10 0.10 93 1014.4
20260506015302 6 0 0.0 0.0 0.00 0.10 0.10 94 1014.4
20260506014702 6 0 0.0 0.0 0.00 0.10 0.10 94 1014.3
20260506014102 7 0 0.0 0.0 0.00 0.10 0.10 94 1014.3
20260506013503 7 0 0.0 0.0 0.00 0.10 0.10 94 1014.2
20260506012902 7 0 0.0 0.0 0.00 0.10 0.10 94 1014.2
20260506012307 7 0 0.0 0.0 0.00 0.10 0.10 96 1014.3
20260506011702 7 0 0.0 0.0 0.00 0.10 0.10 96 1014.4
20260506011102 6 0 0.0 0.0 0.00 0.10 0.10 96 1014.3
20260506010503 6 0 0.0 0.0 0.00 0.10 0.10 96 1014.4
20260506005902 6 0 0.0 0.0 0.00 0.10 0.10 96 1014.4
20260506005302 6 0 0.0 0.0 0.00 0.10 0.10 97 1014.4
20260506004702 6 0 0.0 0.0 0.00 0.10 0.10 97 1014.3
20260506004102 6 0 0.0 0.0 0.00 0.10 0.10 97 1014.3
20260506003503 6 0 0.0 0.0 0.00 0.10 0.10 97 1014.2
20260506002902 6 0 0.0 0.0 0.00 0.10 0.10 97 1014.2
20260506002305 5 0 0.0 1.6 0.00 0.10 0.10 97 1014.2
20260506001702 5 0 0.0 1.6 0.00 0.10 0.10 97 1014.2
20260506001102 5 0 0.0 8.0 0.00 0.10 0.10 96 1014.2
20260506000502 5 172 1.6 8.0 0.00 0.10 0.10 96 1014.2
20260505235902 5 0 0.0 0.0 0.00 0.10 0.10 97 1014.2
20260505235304 5 0 0.0 3.2 0.00 0.10 0.10 97 1014.1
20260505234702 5 0 0.0 4.8 0.00 0.10 0.10 96 1014.3
20260505234102 5 0 0.0 8.0 0.00 0.10 0.10 96 1014.4
20260505233502 5 0 0.0 0.0 0.00 0.10 0.10 96 1014.4
20260505232902 5 0 0.0 4.8 0.00 0.10 0.10 97 1014.3
20260505232305 6 0 0.0 4.8 0.00 0.10 0.10 97 1014.3
20260505231702 6 0 0.0 0.0 0.00 0.10 0.10 97 1014.3
20260505231102 6 0 0.0 0.0 0.00 0.10 0.10 97 1014.3
20260505225902 6 0 0.0 0.0 0.00 0.10 0.10 97 1014.4
20260505225305 6 0 0.0 0.0 0.00 0.10 0.10 97 1014.4
20260505224702 6 0 0.0 0.0 0.00 0.10 0.10 97 1014.4
20260505224102 6 0 0.0 0.0 0.00 0.10 0.10 97 1014.4
20260505223506 6 0 0.0 0.0 0.00 0.10 0.10 97 1014.4
20260505222902 6 0 0.0 0.0 0.00 0.10 0.10 97 1014.4
20260505222305 6 0 0.0 8.0 0.00 0.10 0.10 97 1014.2
20260505221702 6 172 1.6 8.0 0.00 0.10 0.10 97 1014.3
20260505221102 6 0 0.0 0.0 0.00 0.10 0.10 97 1014.3
20260505220503 6 0 0.0 0.0 0.00 0.10 0.10 97 1014.3
20260505215902 6 0 0.0 8.0 0.00 0.10 0.10 97 1014.3
20260505215304 6 0 0.0 8.0 0.00 0.10 0.10 97 1014.3
20260505214702 6 0 0.0 9.7 0.00 0.10 0.10 97 1014.2
20260505214102 5 172 3.2 9.7 0.00 0.10 0.10 97 1014.3
20260505213502 5 0 0.0 17.7 0.00 0.10 0.10 97 1014.3
20260505212902 5 0 0.0 17.7 0.00 0.13 0.10 97 1014.4
20260505212305 5 0 0.0 3.2 0.00 0.13 0.10 97 1014.3
20260505211702 5 0 0.0 14.5 0.00 0.13 0.10 97 1014.2
20260505211102 5 0 0.0 19.3 0.00 0.13 0.10 97 1014.0
20260505210502 5 172 1.6 19.3 0.00 0.13 0.10 96 1013.9
20260505205902 5 172 8.0 19.3 0.00 0.13 0.10 97 1013.9
20260505205305 5 172 4.8 16.1 0.00 0.13 0.10 96 1013.9
20260505204702 5 172 3.2 14.5 0.00 0.13 0.10 96 1014.0
20260505204102 5 172 4.8 11.3 0.00 0.13 0.10 96 1014.0
20260505203502 5 0 0.0 11.3 0.00 0.13 0.10 96 1013.9
20260505202902 5 0 0.0 16.1 0.00 0.13 0.10 96 1013.9
20260505202302 6 0 0.0 16.1 0.00 0.13 0.10 97 1013.8
20260505201702 6 0 0.0 9.7 0.00 0.13 0.10 96 1013.8
20260505201102 6 0 0.0 12.9 0.00 0.13 0.10 97 1013.7
20260505200502 5 172 1.6 12.9 0.00 0.13 0.10 96 1013.8
20260505195902 5 0 0.0 0.0 0.00 0.13 0.10 96 1013.8
20260505195304 5 0 0.0 0.0 0.00 0.13 0.10 96 1013.8
20260505194702 5 0 0.0 0.0 0.00 0.13 0.10 96 1013.8
20260505194102 5 0 0.0 0.0 0.00 0.13 0.10 96 1013.8
20260505193502 5 0 0.0 0.0 0.00 0.13 0.10 96 1013.8
20260505192902 5 0 0.0 0.0 0.00 0.13 0.10 96 1013.8
20260505192305 5 0 0.0 0.0 0.00 0.13 0.10 96 1013.8
20260505191702 5 0 0.0 14.5 0.00 0.13 0.10 95 1013.6
20260505191102 5 172 4.8 14.5 0.00 0.13 0.10 95 1013.7
20260505190502 5 172 1.6 14.5 0.00 0.13 0.10 95 1013.7
20260505185902 5 172 4.8 14.5 0.00 0.13 0.10 95 1013.7
20260505185304 6 172 4.8 12.9 0.00 0.13 0.10 95 1013.6
20260505184702 6 0 0.0 11.3 0.00 0.13 0.10 96 1013.6
20260505184102 6 172 1.6 11.3 0.00 0.13 0.10 95 1013.5
20260505183502 6 0 0.0 0.0 0.00 0.15 0.10 95 1013.5
20260505182904 5 0 0.0 16.1 0.00 0.15 0.10 94 1013.5
20260505182305 6 172 4.8 16.1 0.00 0.15 0.10 95 1013.4
20260505181702 6 0 0.0 11.3 0.00 0.15 0.10 95 1013.5
20260505181102 6 172 1.6 11.3 0.00 0.15 0.10 94 1013.6
20260505180502 6 0 0.0 4.8 0.00 0.15 0.10 94 1013.6
20260505175903 6 0 0.0 14.5 0.00 0.15 0.10 95 1013.4